Location: Caltech
(34.1382°N, 118.1253°W)
Time: 16:23:10
(UTC-07:00)

Tiros 1 despin weight - All Passes

Search period start: 03 August 2015 00:00
Search period end: 13 August 2015 00:00
Orbit: 597 x 647 km, 48.2° (Epoch: 03 August)

Date Brightness Start Highest point End Pass type
(mag) Time Alt. Az. Time Alt. Az. Time Alt. Az.
03 Aug - 00:26:50 10° NNW 00:30:38 24° NNE 00:34:29 10° ENE visible
03 Aug - 02:08:02 10° NW 02:12:45 85° SW 02:17:28 10° SE night (unlit)
03 Aug - 03:51:54 10° WSW 03:53:58 12° SW 03:55:49 10° SSW night (unlit)
03 Aug - 17:54:44 10° SSW 17:58:46 34° SE 18:02:54 10° ENE daylight
03 Aug - 19:36:06 10° W 19:40:23 40° NNW 19:44:43 10° NE daylight
03 Aug - 21:20:10 10° NW 21:23:01 16° N 21:25:53 10° NNE visible
03 Aug - 23:03:20 10° NNW 23:06:08 16° N 23:09:00 10° NE visible
04 Aug - 00:44:28 10° NW 00:48:50 38° NNE 00:53:14 10° E visible
04 Aug - 02:26:08 10° WNW 02:30:32 40° SW 02:34:56 10° SSE night (unlit)
04 Aug - 18:12:03 10° SW 18:16:31 75° SE 18:21:05 10° NE daylight
04 Aug - 19:54:47 10° W 19:58:34 25° NNW 20:02:22 10° NNE daylight
04 Aug - 21:39:03 10° NW 21:41:29 14° N 21:43:56 10° NNE visible
04 Aug - 23:21:06 10° NNW 23:24:32 20° NNE 23:28:03 10° ENE visible
05 Aug - 01:02:11 10° NW 01:06:52 69° NE 01:11:33 10° ESE visible
05 Aug - 02:44:53 10° W 02:48:13 19° SW 02:51:26 10° S night (unlit)
05 Aug - 16:49:33 10° S 16:53:01 23° SE 16:56:37 10° E daylight
05 Aug - 18:30:01 10° WSW 18:34:26 54° NNW 18:38:55 10° NE daylight
05 Aug - 20:13:46 10° WNW 20:16:53 18° NNW 20:20:01 10° NNE visible
05 Aug - 21:57:26 10° NNW 21:59:58 14° N 22:02:33 10° NE visible
05 Aug - 23:38:44 10° NW 23:42:48 29° NNE 23:46:57 10° E visible
06 Aug - 01:20:06 10° WNW 01:24:43 59° SW 01:29:20 10° SE night (unlit)
06 Aug - 17:06:24 10° SSW 17:10:43 50° SE 17:15:07 10° ENE daylight
06 Aug - 18:48:30 10° W 18:52:31 31° NNW 18:56:35 10° NE daylight
06 Aug - 20:32:46 10° NW 20:35:19 14° N 20:37:52 10° NNE visible
06 Aug - 22:15:21 10° NNW 22:18:25 17° NNE 22:21:33 10° ENE visible
06 Aug - 23:56:24 10° NW 00:00:55 50° NNE 00:05:30 10° ESE visible
07 Aug - 01:38:27 10° WNW 01:42:27 27° SW 01:46:23 10° S night (unlit)
07 Aug - 15:44:47 10° SSE 15:47:17 15° SE 15:49:59 10° E daylight
07 Aug - 17:24:04 10° WSW 17:28:32 76° NW 17:33:05 10° NE daylight
07 Aug - 19:07:21 10° WNW 19:10:47 20° NNW 19:14:12 10° NNE daylight
07 Aug - 20:51:26 10° NNW 20:53:48 14° N 20:56:12 10° NNE visible
07 Aug - 22:33:01 10° NNW 22:36:45 24° NNE 22:40:34 10° ENE visible
08 Aug - 00:14:11 10° NW 00:18:52 85° SW 00:23:34 10° SE visible
08 Aug - 01:58:02 10° WSW 02:00:05 12° SW 02:01:55 10° SSW night (unlit)
08 Aug - 16:00:57 10° SSW 16:04:56 34° SE 16:09:01 10° ENE daylight
08 Aug - 17:42:18 10° W 17:46:32 40° NNW 17:50:49 10° NE daylight
08 Aug - 19:26:23 10° NW 19:29:10 16° N 19:31:56 10° NNE daylight
08 Aug - 21:09:32 10° NNW 21:12:16 15° N 21:15:03 10° NE visible
08 Aug - 22:50:38 10° NW 22:54:57 37° NNE 22:59:19 10° E visible
09 Aug - 00:32:16 10° WNW 00:36:39 40° SW 00:41:01 10° SSE visible
09 Aug - 16:18:15 10° SW 16:22:40 75° SE 16:27:11 10° NE daylight
09 Aug - 18:00:59 10° WNW 18:04:42 24° NNW 18:08:26 10° NNE daylight
09 Aug - 19:45:16 10° NNW 19:47:37 14° N 19:49:58 10° NNE daylight
09 Aug - 21:27:16 10° NNW 21:30:39 20° NNE 21:34:06 10° ENE visible
09 Aug - 23:08:20 10° NW 23:12:57 69° NE 23:17:38 10° ESE visible
10 Aug - 00:51:00 10° W 00:54:19 19° SW 00:57:30 10° S night (unlit)
10 Aug - 14:55:44 10° S 14:59:10 23° SE 15:02:43 10° E daylight
10 Aug - 16:36:13 10° WSW 16:40:35 54° NNW 16:45:01 10° NE daylight
10 Aug - 18:19:58 10° WNW 18:23:01 17° NNW 18:26:04 10° NNE daylight
10 Aug - 20:03:39 10° NNW 20:06:05 14° N 20:08:35 10° NE visible
10 Aug - 21:44:53 10° NW 21:48:55 29° NNE 21:53:00 10° E visible
10 Aug - 23:26:15 10° WNW 23:30:49 59° SW 23:35:25 10° SE visible
11 Aug - 15:12:35 10° SSW 15:16:52 50° SE 15:21:12 10° ENE daylight
11 Aug - 16:54:41 10° W 16:58:40 30° NNW 17:02:40 10° NE daylight
11 Aug - 18:38:59 10° NW 18:41:26 14° N 18:43:54 10° NNE daylight
11 Aug - 20:21:31 10° NNW 20:24:31 17° NNE 20:27:35 10° NE visible
11 Aug - 22:02:32 10° NW 22:07:01 50° NNE 22:11:33 10° ESE visible
11 Aug - 23:44:34 10° WNW 23:48:32 27° SW 23:52:27 10° S visible
12 Aug - 13:50:58 10° SSE 13:53:25 15° SE 13:56:04 10° E daylight
12 Aug - 15:30:15 10° WSW 15:34:40 76° NW 15:39:10 10° NE daylight
12 Aug - 17:13:32 10° WNW 17:16:55 20° NNW 17:20:16 10° NNE daylight
12 Aug - 18:57:38 10° NNW 18:59:54 14° N 19:02:12 10° NNE daylight
12 Aug - 20:39:09 10° NNW 20:42:50 23° NNE 20:46:36 10° ENE visible
12 Aug - 22:20:19 10° NW 22:24:56 85° SW 22:29:37 10° SE visible
